Location: Unspecified
(0.0000°N, 0.0000°E)
Time: 03:42:57
(UTC+00:00)

N. Korean satellite - Pass Details

Date: 01 February 2023
Orbit: 408 x 444 km, 97.3° (Epoch: 27 January)

Event Time Altitude Azimuth Distance (km) Brightness Sun altitude
Rises 05:27:39 0° 351° (N) 2,379 9.8 -11.0°
Reaches altitude 10° 05:29:53 10° 336° (NNW) 1,523 8.7 -10.4°
Maximum altitude 05:32:33 24° 281° (W) 953 7.4 -9.8°
Drops below altitude 10° 05:35:16 10° 225° (SW) 1,544 8.8 -9.1°
Sets 05:37:33 0° 211° (SSW) 2,420 10.0 -8.6°
